Regional Weather Roundup
Issued by NWS

Home | Current Version | Previous Version | Text Only | Print | Product List | Glossary On
Versions: 1 2 3 4 5 6 7 8 9 10 11 12 13 14 15 16 17 18 19 20 21 22 23 24 25 26 27 28 29 30 31 32 33 34 35 36 37 38 39 40 41 42 43 44 45 46 47 48 49 50
000
ASUS44 KFWD 190903
RWRTX
NORTH TEXAS HOURLY WEATHER ROUNDUP
NATIONAL WEATHER SERVICE FORT WORTH TX
300 AM CST FRI JAN 19 2018

NOTE: "FAIR" INDICATES FEW OR NO CLOUDS BELOW 12,000 FEET WITH NO
SIGNIFICANT WEATHER AND/OR OBSTRUCTIONS TO VISIBILITY.

TXZ118-119-191000-
DALLAS/FORT WORTH METROPLEX

CITY           SKY/WX    TMP DP  RH WIND       PRES   REMARKS
DFW AIRPORT    MOCLDY    40  20  44 S9        30.25S WCI  34
DALLAS LOVE    CLOUDY    39  19  44 S8        30.27F WCI  33
FTW MEACHAM    FAIR      33  19  56 SE6       30.25S WCI  28
DAL-EXECUTIVE  CLOUDY    38  20  48 S8        30.25F WCI  32
FTW-ALLIANCE   FAIR      32  19  58 S8        30.23F WCI  25
FTW-NAS-JRB    FAIR      34  18  52 SE5       30.25F WCI  30
FTW-SPINKS     CLOUDY    37  21  53 S5        30.27F HAZE    WCI  33
ARLINGTON      CLOUDY    38  20  48 S8        30.26F WCI  32
GRAND PRAIRIE  CLOUDY    38  19  47 SE8       30.28S WCI  32
ADDISON        CLOUDY    38  19  44 S8        30.27F WCI  33
MESQUITE       CLOUDY    37  19  48 S9        30.29S WCI  30
LANCASTER      CLOUDY    37  19  48 S6        30.29F WCI  32
$$

TXZ091>094-102>105-117-120-121-131>134-191000-
NORTH CENTRAL TEXAS

CITY           SKY/WX    TMP DP  RH WIND       PRES   REMARKS
SHRMAN/DENISON FAIR      27  17  64 S9        30.25S WCI  18
GAINESVILLE    FAIR      26  15  61 S5        30.25S WCI  21
BOWIE          FAIR      27  16  63 SE5       30.20S WCI  21
BRIDGEPORT     FAIR      25  17  70 E5        30.24F WCI  19
DENTON         FAIR      30  18  60 S6        30.24F WCI  24
MCKINNEY       CLOUDY    37  20  50 S13       30.25F WCI  29
BONHAM         FAIR      29  17  61 S8        30.26S WCI  21
ROCKWALL       CLOUDY    37  19  48 S9        30.28F WCI  30
TERRELL        CLOUDY    38  18  44 S8        30.30S WCI  32
WAXAHACHIE     CLOUDY    37  23  57 S6        30.28F WCI  32
CLEBURNE       CLOUDY    37  19  48 S8        30.26F WCI  31
GRANBURY       CLOUDY    33  20  58 SE3       30.26F
$$

TXZ083>090-098>101-113>116-127>130-139>142-154-155-191000-
WESTERN NORTH TEXAS

CITY           SKY/WX    TMP DP  RH WIND       PRES   REMARKS
WICHITA FALLS  FAIR      24  15  68 S10       30.16F WCI  14
WF-KICKAPOO    FAIR      28  19  67 S10       30.19F WCI  19
VERNON         FAIR      28  14  57 S9        30.13S WCI  19
ABILENE        FAIR      33  21  61 S10       30.16F WCI  25
ABILENE-DYESS  FAIR      35  19  50 S13       30.15F WCI  27
GRAHAM           N/A     30  21  67 CALM      30.18S
BRECKENRIDGE   FAIR      37  29  72 S9G16     30.18F WCI  31
CISCO          MOCLDY    34  28  80 S6        30.19S WCI  29
EASTLAND       FAIR      32  28  85 S6        30.20F WCI  27
RANGER         FAIR      32  28  86 SW6       30.19F WCI  26
MINERAL WELLS  FAIR      28  16  60 SE13      30.21S WCI  17
STEPHENVILLE   CLOUDY    33  20  59 S3        30.25F
COMANCHE       CLOUDY    40  31  70 SW7       30.21F WCI  36
BROWNWOOD      CLOUDY    39  32  75 S7        30.22F WCI  34
COLEMAN        FAIR      35  28  75 SW7       30.20F WCI  29
$$

TXZ143>147-156>162-174-175-191000-
CENTRAL TEXAS

CITY           SKY/WX    TMP DP  RH WIND       PRES   REMARKS
WACO           CLOUDY    39  21  48 S13       30.28F WCI  31
WACO-MCGREGOR  CLOUDY    39  20  46 S8        30.28F WCI  33
CORSICANA      CLOUDY    38  18  44 S7        30.31F WCI  33
MEXIA          CLOUDY    37  17  44 S8        30.29F WCI  31
HEARNE         CLOUDY    36  22  56 SE7       30.34F WCI  31
CAMERON        CLOUDY    37  23  57 S8        30.31F WCI  31
TEMPLE         CLOUDY    37  21  52 S9        30.29S WCI  30
KILLEEN        CLOUDY    38  19  46 S9        30.25S WCI  32
KILLEEN-SKYLRK CLOUDY    39  20  46 S10       30.27F WCI  32
FORT HOOD      CLOUDY    39  19  44 S8        30.23F WCI  33
GATESVILLE     MOCLDY    39  19  45 S6        30.27F WCI  35
HAMILTON       CLOUDY    41  27  56 S6        30.24S WCI  37
LAMPASAS       CLOUDY    41  27  57 S6        30.23F WCI  37
$$

TXZ095>097-106>112-122>126-135>138-148>153-164>167-191000-
EAST TEXAS

CITY           SKY/WX    TMP DP  RH WIND       PRES   REMARKS
PARIS          CLOUDY    33  19  56 S7        30.28F WCI  27
SULPHUR SPRNGS CLOUDY    39  17  42 S8        30.31S WCI  33
MOUNT PLEASANT CLOUDY    37  21  52 S7        30.32S WCI  32
GILMER         CLOUDY    38  20  48 MISG      30.31F
MINEOLA        CLOUDY    37  18  44 S7        30.30F WCI  32
TYLER          CLOUDY    38  18  44 S7        30.30F WCI  33
LONGVIEW       CLOUDY    39  22  50 S6        30.31F WCI  35
MARSHALL       CLOUDY    36  17  46 CALM      30.34F
ATHENS         CLOUDY    34  14  44 S3        30.30F
PALESTINE      CLOUDY    38  13  34 S3        30.33F
JACKSONVILLE   CLOUDY    37  19  48 S7        30.32F WCI  31
CENTER         CLOUDY    37  18  45 CALM      30.35F
NACOGDOCHES    CLOUDY    38  20  48 CALM      30.34F
LUFKIN         CLOUDY    37  22  54 S5        30.34F WCI  33
$$

SUPPLEMENTAL OBSERVATIONS (NWS FORT WORTH AREA)

CITY           SKY/WX    TMP DP  RH WIND       PRES   REMARKS
$$

SUPPLEMENTAL OBSERVATIONS (NWS NORMAN AREA)

CITY           SKY/WX    TMP DP  RH WIND       PRES   REMARKS
GOODLETT         N/A     26  15  64 S10       30.08F WCI  16
ODELL            N/A     31  19  59 S13       30.11F WCI  22
CROWELL          N/A     32  17  54 SW10      30.13F WCI  23
KNOX CITY        N/A     27  16  62 S10       30.15F WCI  18
SEYMOUR          N/A     30  18  59 S10       30.15F WCI  21
$$

SUPPLEMENTAL OBSERVATIONS (NWS SAN ANGELO AREA)

CITY           SKY/WX    TMP DP  RH WIND       PRES   REMARKS
WEINERT          N/A     30  14  51 SW6       30.16S WCI  24
HASKELL          N/A     30  15  53 S7        30.16R WCI  23
THROCKMORTON     N/A     32  21  64 S5        30.17S WCI  28
CLYDE            N/A     33  20  59 S10       30.17S WCI  25
$$

SUPPLEMENTAL OBSERVATIONS (NWS SHREVEPORT AREA)

CITY           SKY/WX    TMP DP  RH WIND       PRES   REMARKS
$$

SUPPLEMENTAL OBSERVATIONS ARE A COLLECTION OF AUTOMATED INSTRUMENTS
THAT ARE MAINTAINED BY A VARIETY OF FEDERAL AND STATE AGENCIES.
CERTAIN ELEMENTS...SUCH AS HUMIDITY VALUES AND SUSTAINED WIND
SPEEDS...MAY BE APPROXIMATED.





USA.gov is the U.S. government's official web portal to all federal, state and local government web resources and services.